Location: Aula-Vintri
(58.3875°N, 22.4322°E)
Time: 21:33:29
(UTC+00:00)

Cosmos 724 - Pass Details

Date: 13 October 2019
Orbit: 859 x 935 km, 65.6° (Epoch: 20 November)

Event Time Altitude Azimuth Distance (km) Brightness Sun altitude
Rises 17:33:52 0° 218° (SW) 3,567 7.8 -16.8°
Reaches altitude 10° 17:36:24 10° 216° (SW) 2,618 7.0 -17.1°
Maximum altitude 17:42:28 70° 134° (SE) 968 4.3 -17.9°
Enters shadow 17:47:38 14° 53° (NE) 2,291 6.1 -18.5°
